Theta_e
312 313 314 315 317 316 313 307 295 305 308 294 295 290 293 293 292 293 293 291 291 290 290 288 290 290 292 296 293 289 293 291 288 290 285 285 287 288 288 284 283 284 284 285
309 310 312 313 314 316 310 302 300 304 306 289 288 293 292 293 292 292 291 290 292 292 289 285 289 291 295 294 293 290 290 287 285 287 283 283 284 284 287 288 288 284 282 284
306 308 310 311 311 311 311 302 292 295 298 299 294 292 291 290 295 293 291 289 291 289 287 290 288 289 291 293 294 295 294 288 287 283 287 287 283 284 285 287 284 284 285 287
302 303 305 307 307 307 306 304 295 294 286 290 293 295 293 292 290 293 293 289 289 289 286 288 287 290 291 289 292 291 291 285 288 289 290 289 288 287 287 283 285 283 287 287
300 301 301 303 303 305 301 298 296 295 294 294 291 292 291 291 294 294 290 289 292 291 287 289 289 289 289 288 286 289 289 284 286 283 287 287 285 288 288 288 288 288 287 285
298 299 299 300 301 302 297 300 301 297 292 291 289 289 290 291 294 296 296 294 292 291 291 294 295 295 294 293 290 288 286 285 284 280 286 285 280 285 287 288 290 289 284 290
299 298 298 298 298 298 297 295 291 286 285 289 288 291 292 291 293 292 295 296 293 296 298 294 293 291 291 292 292 293 286 285 285 280 283 274 286 291 290 288 290 291 291 292
298 298 298 298 297 297 294 295 290 287 282 288 287 288 290 294 294 293 293 296 299 301 293 287 284 284 284 286 289 290 291 287 281 278 279 283 285 288 287 286 286 292 291 292
297 297 297 297 296 296 294 293 294 287 282 282 287 284 285 285 287 289 293 298 301 296 290 285 281 281 284 282 284 290 289 289 283 280 276 275 286 291 293 291 281 293 292 292
297 297 297 297 297 296 294 293 295 287 281 284 285 282 284 287 284 283 290 292 289 295 289 284 283 282 288 282 281 280 282 283 279 280 279 283 290 291 290 280 284 294 293 293
296 297 297 297 297 297 294 291 295 289 283 284 286 286 282 283 283 280 285 283 287 288 285 285 285 284 286 285 288 286 284 281 280 280 278 276 293 292 285 292 296 296 296 292
296 296 296 296 296 297 296 288 293 294 286 284 288 288 288 285 284 282 284 284 281 284 284 287 288 285 286 286 282 290 283 288 286 286 285 292 295 294 296 296 295 296 295 295
295 295 296 296 296 296 295 291 290 289 284 282 281 281 286 289 288 289 279 283 286 285 289 283 283 282 284 283 285 287 291 293 288 288 291 292 294 296 297 297 296 297 297 295
295 295 295 295 296 296 295 291 291 287 284 277 279 284 283 287 288 287 287 286 286 285 285 281 279 277 284 280 283 281 284 286 285 284 287 291 294 295 294 292 293 291 293 291
294 294 294 295 295 295 294 293 292 291 284 276 276 281 285 286 286 284 285 283 282 280 278 277 276 281 281 283 283 280 286 284 282 282 289 290 291 295 296 295 294 295 294 293
294 294 294 294 294 294 290 283 290 291 289 281 275 281 279 284 284 283 282 282 281 281 278 278 280 283 280 276 275 283 287 289 289 287 291 290 291 293 295 294 295 296 295 295
294 294 293 294 294 291 285 283 287 290 290 280 275 274 279 279 281 282 282 283 282 281 278 277 278 278 279 276 272 279 282 283 284 286 285 283 286 287 291 293 293 293 293 293
294 293 293 293 294 292 287 291 293 291 285 282 274 274 274 278 277 276 280 279 280 280 278 279 277 279 279 272 278 280 282 283 284 284 282 283 285 286 288 290 290 290 290 292
293 293 293 290 288 284 285 292 293 292 285 276 273 269 269 277 276 277 278 279 272 278 274 275 276 274 271 276 278 273 268 267 268 269 270 275 278 280 281 282 283 285 288 290
292 288 283 279 283 289 289 282 278 279 280 279 272 273 270 276 275 272 273 274 271 269 273 279 274 272 277 262 263 264 263 264 264 262 262 264 265 268 270 271 275 279 283 286
285 281 279 283 289 283 278 273 272 268 268 273 274 272 272 277 271 271 275 272 272 268 271 271 270 270 260 261 260 262 262 261 261 262 262 263 264 264 266 268 270 273 278 283
285 283 282 282 279 275 272 268 265 266 266 269 271 273 274 276 279 274 274 270 272 267 271 268 267 265 260 258 258 259 260 259 259 260 260 261 262 262 262 263 264 267 271 281
286 280 277 275 273 268 266 261 263 261 266 268 271 272 276 276 277 273 271 267 267 270 267 268 266 259 259 257 257 257 258 259 259 259 260 260 259 260 260 260 263 266 270 280
276 273 268 269 268 269 268 266 268 266 266 265 268 271 272 272 270 272 264 269 268 266 265 266 257 257 256 256 257 256 255 255 256 257 257 257 258 258 259 263 266 267 271 282
271 271 268 264 266 261 260 261 262 260 262 263 266 266 269 268 266 268 267 264 264 264 261 256 256 255 254 254 254 254 254 255 256 256 256 256 256 257 262 266 269 274 274 272
273 272 266 258 263 259 256 255 257 260 261 262 263 264 264 263 264 262 263 259 261 256 252 253 253 252 253 253 254 254 255 255 256 256 257 257 257 259 261 263 263 264 264 263
267 260 258 259 256 254 253 254 257 260 259 262 259 262 263 262 261 258 252 253 249 251 251 252 253 252 253 253 254 255 255 255 256 256 256 257 258 260 259 258 259 260 261 262
Wind_Speed
14 14 13 13 16 15 8 3 6 4 13 9 6 14 11 4 6 8 12 3 11 22 16 13 13 16 14 12 11 13 9 4 12 19 2 3 2 10 15 10 9 13 10 36
17 15 15 12 13 9 3 4 5 5 9 9 7 9 11 6 8 12 12 16 13 13 17 12 14 17 6 11 12 13 10 4 5 11 4 1 8 7 11 13 14 34 11 37
18 18 14 11 10 13 6 3 3 2 4 3 18 18 19 14 10 20 6 7 9 8 12 15 13 18 7 8 10 3 12 7 15 22 17 4 7 10 17 23 19 19 26 34
16 18 19 17 14 13 4 5 5 9 7 12 14 18 10 22 15 12 12 6 17 21 17 22 24 26 16 3 4 5 7 11 15 23 26 20 23 21 22 27 28 27 34 28
16 16 17 16 19 16 4 6 4 4 4 17 26 21 18 24 24 17 16 21 23 25 26 24 21 25 22 15 4 9 7 22 24 30 34 32 29 22 31 31 39 33 28 33
17 17 17 16 14 13 4 4 5 5 9 12 16 23 31 30 28 20 25 25 20 20 28 31 33 26 15 9 16 14 9 11 14 22 25 19 16 38 34 42 33 32 33 38
19 17 16 16 13 10 5 2 2 4 4 9 16 23 28 33 37 34 26 26 25 32 10 2 4 4 18 22 20 21 14 16 13 11 7 18 22 23 33 40 37 32 30 35
17 15 15 16 14 16 5 3 2 3 5 5 13 13 15 25 30 32 32 28 25 15 7 8 9 6 7 18 26 28 26 20 10 10 17 11 2 17 27 24 30 26 33 35
19 16 16 16 15 16 6 4 4 3 4 6 7 9 8 9 10 13 21 24 14 6 6 7 12 12 8 8 7 21 26 24 18 8 10 17 16 29 28 7 9 32 26 28
20 20 18 16 17 16 8 4 5 3 5 6 8 7 6 6 5 8 6 5 6 15 12 14 14 15 7 13 13 10 8 12 24 23 22 13 12 11 6 15 21 29 29 27
20 22 20 19 17 20 11 4 6 5 5 10 8 11 12 8 6 5 8 9 4 7 17 12 13 11 14 12 20 24 19 13 12 15 18 25 18 19 26 29 31 24 20 10
22 20 21 21 19 18 17 5 6 6 7 7 4 12 15 14 19 9 4 8 10 5 6 4 6 8 7 14 17 18 24 25 24 25 18 17 17 31 33 32 30 25 18 11
24 23 21 20 21 21 17 7 4 3 5 4 4 9 11 14 16 13 9 7 7 5 4 5 5 6 7 7 13 24 20 20 23 27 24 20 17 17 20 22 24 23 21 10
22 25 23 21 20 20 17 6 4 3 3 4 6 3 6 8 12 14 13 17 15 12 10 12 11 11 7 12 12 17 9 12 8 9 15 22 24 17 12 12 12 13 16 10
23 22 22 22 21 20 13 4 6 8 5 3 4 3 12 16 17 20 17 14 16 9 8 9 14 13 14 14 19 19 19 21 19 21 22 17 20 22 17 16 18 20 18 18
22 22 21 22 21 18 2 4 7 11 8 5 4 2 4 10 11 12 14 11 9 7 6 7 8 16 16 15 23 22 21 25 30 27 21 21 24 22 24 23 25 22 24 24
20 20 20 19 20 10 6 3 2 6 6 3 4 4 6 4 5 4 5 8 7 7 8 9 14 14 17 18 23 28 29 30 33 32 31 35 32 26 25 22 25 23 23 21
19 17 17 17 18 15 8 11 15 9 3 5 5 3 5 6 4 5 4 4 3 6 10 9 11 10 11 13 18 24 27 28 28 24 20 21 22 26 26 26 26 26 21 21
15 16 14 4 2 4 4 10 18 6 5 3 3 2 7 1 4 2 2 5 8 4 7 14 8 10 11 18 16 13 14 13 18 23 22 21 16 18 20 20 22 25 24 19
12 2 2 3 5 3 9 4 2 1 1 2 4 2 6 1 4 3 2 1 4 4 6 3 6 10 21 15 13 12 15 16 18 19 17 22 23 19 21 23 22 21 22 25
2 4 5 1 7 2 1 3 3 2 2 4 5 6 7 2 4 4 4 3 4 5 5 4 4 6 4 13 14 14 14 15 16 16 20 20 21 23 23 26 24 23 25 23
5 2 1 2 3 2 4 2 1 4 7 3 4 4 5 3 3 4 4 5 4 6 2 3 7 2 8 14 18 18 16 17 18 18 21 22 23 20 21 24 26 26 26 27
2 3 3 2 3 5 7 7 4 3 4 3 3 3 2 2 5 4 3 4 6 2 5 7 3 6 12 14 15 17 17 18 20 20 19 22 24 21 20 26 23 25 25 25
3 4 5 5 4 5 6 5 2 3 3 3 2 3 3 2 2 4 4 7 1 7 7 8 3 14 17 16 16 18 21 20 21 22 21 21 22 24 24 24 23 21 21 17
2 1 4 5 2 1 1 1 3 3 2 3 1 3 2 3 4 5 3 4 7 4 7 6 12 18 18 19 19 20 21 20 20 21 20 21 21 20 21 17 16 10 3 8
3 5 3 1 2 0 3 3 2 3 3 1 1 2 2 7 3 2 6 4 7 2 6 10 14 17 18 19 19 19 19 20 20 19 19 19 18 17 15 12 12 12 11 12
3 1 3 2 4 3 2 2 2 5 3 2 1 4 4 5 4 3 3 3 6 10 11 11 15 17 20 19 19 18 19 19 18 17 15 15 15 10 8 11 12 12 13 13
Wind_Direction
321 315 324 322 281 237 214 212 206 162 157 196 206 222 218 182 226 226 250 249 259 246 236 245 241 244 229 175 151 170 205 192 235 239 85 338 319 234 205 223 220 236 270 274
323 313 312 313 329 276 166 232 168 214 181 205 214 239 254 256 231 216 207 227 227 228 240 245 240 249 183 165 167 170 172 210 241 259 214 220 208 195 232 239 258 248 219 262
334 340 332 325 337 353 271 211 204 204 236 220 205 215 226 232 207 242 225 227 215 224 242 226 247 247 215 193 208 135 166 172 222 242 245 130 183 211 223 223 235 257 238 257
320 325 333 347 346 346 302 217 198 179 182 229 231 221 213 230 234 215 211 247 226 229 245 247 245 251 248 181 197 117 151 236 237 247 264 264 271 270 249 235 242 246 260 265
308 306 311 329 333 342 247 276 175 191 215 211 218 216 216 234 241 219 221 219 221 226 232 229 246 237 244 223 184 213 197 236 234 255 264 266 258 251 255 259 258 254 253 265
301 306 306 300 324 340 290 344 346 293 184 201 216 219 224 227 232 232 232 223 230 226 229 228 237 245 255 218 227 223 206 219 219 240 233 248 256 241 246 252 255 255 262 253
300 295 298 306 302 309 307 341 359 282 272 235 218 221 217 225 232 229 229 225 229 233 247 39 18 275 247 243 228 228 225 228 228 252 235 228 233 234 235 244 251 256 255 260
288 292 298 298 291 295 271 307 273 270 271 272 274 290 273 240 234 237 240 239 235 248 179 231 236 212 223 233 235 228 221 224 229 226 221 254 236 228 222 230 249 252 251 262
285 286 287 277 282 282 278 243 254 250 289 241 288 297 298 293 276 280 257 255 245 198 187 198 227 227 207 202 224 222 223 222 220 201 228 232 226 237 238 228 254 254 242 246
283 280 280 275 277 275 278 253 220 211 266 273 280 272 305 342 348 326 276 260 211 204 226 236 236 237 197 219 207 195 182 204 220 230 242 242 217 222 97 201 238 242 245 251
280 279 275 274 265 268 272 275 238 206 265 272 243 264 277 287 289 271 321 333 322 202 220 230 228 232 217 228 229 219 212 193 205 227 240 244 222 219 216 235 247 246 254 239
270 272 275 273 267 262 259 253 228 230 239 262 214 246 254 254 257 264 236 306 312 293 301 277 251 232 190 211 231 218 236 229 235 218 228 222 212 220 225 235 251 256 254 246
269 270 270 271 269 264 256 244 225 202 231 261 243 237 248 243 242 240 254 257 255 258 300 329 326 300 3 306 254 260 249 256 252 257 252 242 241 241 244 240 241 253 260 265
275 271 266 263 266 265 264 238 181 217 226 248 255 301 240 231 227 222 231 259 277 293 289 275 254 263 211 262 293 298 277 313 300 300 296 306 294 277 265 258 258 272 267 246
271 275 263 260 260 264 270 237 200 192 226 259 245 230 254 252 253 253 249 251 256 240 259 258 269 285 290 270 268 264 272 277 271 268 276 273 282 289 293 285 264 260 264 267
265 271 268 259 259 261 250 242 214 208 194 257 249 280 264 246 234 246 243 234 250 236 246 265 257 253 261 261 264 273 271 268 259 265 272 280 283 284 281 276 272 273 277 271
258 269 271 261 259 251 214 223 302 160 152 260 276 252 248 298 213 223 226 214 222 236 258 241 256 256 255 259 264 276 276 280 281 284 290 286 281 279 280 271 278 280 274 265
255 264 260 264 265 265 246 228 218 157 186 212 233 249 308 184 216 250 213 228 211 215 244 253 251 257 252 254 254 256 261 264 266 279 301 296 300 295 281 276 276 276 271 272
254 264 269 309 194 216 227 219 222 207 219 246 179 233 281 72 224 251 268 262 270 266 241 244 251 247 240 245 275 339 1 348 326 319 307 299 303 303 301 300 297 289 284 271
269 264 168 227 210 193 114 20 95 146 244 260 224 166 251 221 305 279 291 308 253 243 238 256 219 242 242 28 5 343 340 336 335 333 328 333 317 311 306 300 296 287 279 280
124 188 211 122 138 91 107 198 169 152 261 221 230 207 237 204 226 234 213 245 260 245 246 228 245 261 17 354 346 336 332 325 319 304 297 299 291 294 298 295 288 287 285 275
179 149 78 132 180 161 181 170 84 214 219 217 205 215 200 221 179 222 210 227 234 267 184 223 259 96 357 342 331 325 325 319 315 311 302 299 293 291 287 283 283 282 283 278
157 202 211 208 161 178 178 181 224 240 210 218 206 214 236 198 221 237 241 245 243 339 231 238 301 15 344 332 320 318 319 315 311 306 301 299 296 291 280 280 273 275 273 274
192 190 218 207 188 219 204 199 206 54 47 359 350 262 220 216 230 229 222 234 196 237 242 247 29 347 330 326 323 321 317 319 311 309 308 304 299 297 294 280 270 266 264 276
217 155 241 218 210 69 30 31 122 21 320 323 260 258 265 243 242 215 250 285 242 274 298 1 335 329 319 319 319 315 315 314 314 315 311 310 305 301 302 319 322 318 65 93
197 223 254 84 103 200 29 19 64 4 322 276 257 262 253 245 227 216 227 198 239 335 322 313 313 313 314 313 312 309 309 311 311 310 311 309 307 307 310 323 4 21 54 77
194 209 26 65 66 83 105 344 10 328 319 187 189 224 227 317 254 257 6 303 332 312 304 302 301 305 308 307 306 313 313 311 311 309 314 319 317 321 351 11 16 38 53 70